Regional Weather Roundup
Issued by NWS Goodland, KS

Home | Current Version | Previous Version | Graphics & Text | Print | Product List | Glossary On
Versions: 1 2 3 4 5 6 7 8 9 10 11 12 13 14 15 16 17 18 19 20 21 22 23 24 25 26 27 28 29 30 31 32 33 34 35 36 37 38 39 40 41 42 43 44 45 46 47 48 49 50
000
ASUS43 KGLD 281808
RWRGLD

GOODLAND FORECAST AREA HOURLY WEATHER ROUNDUP
NATIONAL WEATHER SERVICE GOODLAND KS
1200 PM MDT WED JUN 28 2017

...OFFICIAL OBSERVATIONS...

CITY           SKY/WX    TMP DP  RH WIND       PRES   REMARKS
GOODLAND KS    SUNNY     84  50  30 N8        29.85S
HILL CITY KS   SUNNY     86  64  47 VRB3      29.76F
IMPERIAL NEB   SUNNY     86  45  23 NW10G16   29.82F
MCCOOK NEB     SUNNY     89  51  27 N10G16    29.78S
AKRON CO       SUNNY     81  38  21 VRB7      29.91F
BURLINGTON CO  SUNNY     85  45  24 VRB7      29.90R
LIMON CO       SUNNY     81  39  22 S6        29.95F
$$

...UNOFFICIAL OBSERVATIONS...

CITY           SKY/WX    TMP DP  RH WIND       PRES   REMARKS
LENORA KS        N/A     87  32  14 MISG        N/A
NORTON KS      SUNNY     91  43  18 N9        29.76S
SHARON SPRINGS   N/A     84  59  42 NE9         N/A
TRENTON NEB      N/A     87  32  14 NW7         N/A
KIT CARSON CO    N/A     85  44  23 MISG        N/A
YUMA CO        FAIR      81  45  28 NW6       29.88F
$$




USA.gov is the U.S. government's official web portal to all federal, state and local government web resources and services.